Spokane, WA

6:25 PM PST on December 03, 2016 (GMT -0800)
Spokane International

Weather History for KGEG - February, 2013

Change the Weather History Date:

Tuesday, February 5, 2013

  Actual Average Record
Temperature  
Mean Temperature 35 °F 32 °F  
Max Temperature 41 °F 37 °F 53 °F (1963)
Min Temperature 29 °F 26 °F -15 °F (1883)
Degree Days  
Heating Degree Days 30 33  
Month to date heating degree days 162 167  
Since 1 July heating degree days 3830 4100  
Cooling Degree Days 0 0  
Month to date cooling degree days 0 0  
Year to date cooling degree days 0 0  
Moisture  
Dew Point 32 °F    
Average Humidity 90    
Maximum Humidity 100    
Minimum Humidity 79    
Precipitation  
Precipitation T in 0.05 in 0.57 in (1996)
Month to date precipitation T 0.23  
Year to date precipitation 1.63 2.02  
Snow  
Snow 0.00 in 0.30 in 3.30 in (1946)
Month to date snowfall 0.0 1.5  
Since 1 July snowfall 38.2 35.0  
Snow Depth 0.00 in    
Sea Level Pressure  
Sea Level Pressure 29.89 in    
Wind  
Wind Speed 7 mph (South)    
Max Wind Speed 17 mph    
Max Gust Speed 21 mph    
Visibility 7 miles    
Events Fog , Rain    
T = Trace of Precipitation, MM = Missing Value Source: NWS Daily Summary

Daily Weather History Graph

Daily Weather History Graph

Search for Another Location

Airport or City:

Trip Planner

Search our weather history database for the weather conditions in past years. The results will help you decide how hot, cold, wet, or windy it might be!

Date:

Astronomy

Feb. 05, 2013 Rise Set
Actual Time 7:10 AM PST 4:58 PM PST
Civil Twilight 6:38 AM PST 5:30 PM PST
Nautical Twilight 6:01 AM PST 6:07 PM PST
Astronomical Twilight 5:25 AM PST 6:43 PM PST
Moon 3:05 AM PST (2/5) 12:11 PM PST (2/5)
Length of Visible Light 10h 52m
Length of Day
9h 47m
Waning Crescent, 25% of the Moon is Illuminated
Feb 5
Waning Crescent
Feb 9
New
Feb 17
First Quarter
Feb 25
Full
Mar 4
Last Quarter

Hourly Weather History & Observations

Time (PST) Temp. Windchill Dew Point Humidity Pressure Visibility Wind Dir Wind Speed Gust Speed Precip Events Conditions
12:53 AM 30.9 °F 26.2 °F 30.0 °F 96% 29.98 in 0.8 mi ENE 4.6 mph - N/A   Overcast
1:45 AM 30.2 °F 26.7 °F 30.2 °F 100% 29.93 in 1.2 mi NE 3.5 mph - N/A   Overcast
1:53 AM 30.9 °F 26.2 °F 30.9 °F 100% 29.98 in 1.2 mi NE 4.6 mph - N/A   Overcast
2:22 AM 32.0 °F 28.7 °F 30.2 °F 93% 29.92 in 3.0 mi ENE 3.5 mph - N/A   Overcast
2:53 AM 32.0 °F - 30.9 °F 96% 29.96 in 3.0 mi Calm Calm - N/A   Overcast
3:53 AM 32.0 °F 26.4 °F 30.9 °F 96% 29.93 in 4.0 mi ENE 5.8 mph - N/A   Overcast
4:53 AM 32.0 °F 28.7 °F 30.0 °F 92% 29.89 in 5.0 mi ENE 3.5 mph - N/A   Overcast
5:53 AM 30.0 °F - 28.9 °F 96% 29.90 in 4.0 mi Calm Calm - N/A   Mostly Cloudy
6:43 AM 30.2 °F - 28.4 °F 93% 29.84 in 1.5 mi Calm Calm - N/A   Mostly Cloudy
6:53 AM 30.0 °F - 28.0 °F 92% 29.89 in 1.5 mi Calm Calm - N/A   Mostly Cloudy
7:53 AM 30.9 °F - 30.0 °F 96% 29.89 in 2.0 mi Calm Calm - N/A   Mostly Cloudy
8:18 AM 30.2 °F - 28.4 °F 93% 29.83 in 4.0 mi Calm Calm - N/A   Mostly Cloudy
8:53 AM 30.9 °F - 30.0 °F 96% 29.89 in 8.0 mi Calm Calm - N/A Fog Patches of Fog
9:53 AM 35.1 °F 31.0 °F 32.0 °F 89% 29.88 in 10.0 mi SSE 4.6 mph - N/A   Mostly Cloudy
10:53 AM 39.0 °F 33.4 °F 33.1 °F 79% 29.87 in 10.0 mi South 8.1 mph - N/A   Mostly Cloudy
11:53 AM 39.9 °F 33.4 °F 33.1 °F 77% 29.86 in 10.0 mi South 10.4 mph - N/A   Overcast
12:53 PM 39.9 °F 32.9 °F 33.1 °F 77% 29.85 in 10.0 mi SSW 11.5 mph - N/A   Overcast
1:53 PM 39.0 °F 31.0 °F 34.0 °F 82% 29.84 in 8.0 mi SSW 13.8 mph - 0.00 in Rain Light Rain
2:53 PM 39.9 °F 32.1 °F 34.0 °F 79% 29.85 in 10.0 mi SSW 13.8 mph - 0.00 in Rain Light Rain
3:53 PM 39.9 °F 33.4 °F 34.0 °F 79% 29.85 in 10.0 mi South 10.4 mph - 0.00 in   Mostly Cloudy
4:53 PM 37.9 °F 30.9 °F 33.1 °F 83% 29.87 in 10.0 mi SSW 10.4 mph - N/A   Mostly Cloudy
5:22 PM 37.4 °F 31.4 °F 33.8 °F 87% 29.83 in 10.0 mi SSW 8.1 mph - N/A   Mostly Cloudy
5:53 PM 37.0 °F 30.4 °F 34.0 °F 89% 29.88 in 10.0 mi South 9.2 mph - N/A   Mostly Cloudy
6:53 PM 37.0 °F 28.9 °F 34.0 °F 89% 29.89 in 10.0 mi South 12.7 mph - N/A   Scattered Clouds
7:53 PM 37.0 °F 28.9 °F 34.0 °F 89% 29.89 in 10.0 mi South 12.7 mph - N/A   Mostly Cloudy
8:53 PM 37.0 °F 30.4 °F 33.1 °F 86% 29.90 in 10.0 mi South 9.2 mph - N/A   Mostly Cloudy
9:53 PM 36.0 °F 28.5 °F 33.1 °F 89% 29.91 in 10.0 mi South 10.4 mph - N/A   Scattered Clouds
10:53 PM 35.6 °F 28.0 °F 32.0 °F 87% 29.88 in 10.0 mi South 10.4 mph - N/A   Scattered Clouds
11:53 PM 34.0 °F 26.6 °F 30.9 °F 89% 29.93 in 10.0 mi South 9.2 mph - N/A   Scattered Clouds